Regional Weather Roundup
Issued by NWS

Home | Current Version | Previous Version | Graphics & Text | Print | Product List | Glossary Off
Versions: 1 2 3 4 5 6 7 8 9 10 11 12 13 14 15 16 17 18 19 20 21 22 23 24 25 26 27 28 29 30 31 32 33 34 35 36 37 38 39 40 41 42 43 44 45 46 47 48 49 50

000
ASUS43 KMKX 300411
RWRWI

WISCONSIN REGIONAL WEATHER ROUNDUP
NATIONAL WEATHER SERVICE MILWAUKEE/SULLIVAN WI
1100 PM CDT SUN MAY 29 2016

NOTE: "FAIR" INDICATES FEW OR NO CLOUDS BELOW 12,000 FEET WITH NO
SIGNIFICANT WEATHER AND/OR OBSTRUCTIONS TO VISIBILITY.

WIZ001-002-006>008-014>016-023>028-300500-
NORTHWEST WISCONSIN

CITY           SKY/WX    TMP DP  RH WIND       PRES   REMARKS
SUPERIOR ARPT  CLEAR     52  50  94 SW6       29.93R
ASHLAND        CLEAR     55  51  86 SW6       29.93R
HAYWARD        CLEAR     54  52  93 CALM      29.95S
SIREN          PTCLDY    58  55  89 CALM      29.97R
CUMBERLAND     PTCLDY    57  55  94 W3        29.97R
RICE LAKE      CLEAR     61  57  88 CALM      29.98R
CHETEK         PTCLDY    58  58 100 CALM      29.97R FOG
LADYSMITH      CLEAR     58  55  92 CALM      29.98R
EAU CLAIRE     MOCLDY    62  57  83 SW5       29.96R
MENOMONIE      PTCLDY    65  56  74 SW5       29.97R
NEW RICHMOND   CLEAR     61  55  83 SW5       29.98R
OSCEOLA        CLEAR     60  60 100 CALM      29.99S
$$

WIZ003>005-009-010-017-018-300500-
NORTH CENTRAL WISCONSIN

CITY           SKY/WX    TMP DP  RH WIND       PRES   REMARKS
MANITOWISH WTR NOT AVBL
ARBOR VITAE    CLEAR     59  55  87 CALM      29.95R
WOODRUFF       CLEAR     59  55  87 CALM      29.95R
RHINELANDER    MOCLDY    55  53  93 W3        29.96R FOG
EAGLE RIVER      N/A     53  53 100 CALM      29.94R
LAND O LAKES   CLEAR     53  53  99 CALM      29.94S
PHILLIPS       CLEAR     55  55 100 CALM      29.96R
TOMAHAWK       CLEAR     53  52  95 CALM      29.96R
MEDFORD        MOCLDY    62  57  83 W3        29.97R
MERRILL        MOCLDY    57  57 100 CALM      29.96R
$$

WIZ029-030-035-036-043>047-300500-
CENTRAL WISCONSIN

CITY           SKY/WX    TMP DP  RH WIND       PRES   REMARKS
WAUSAU         CLEAR     61  56  83 CALM      29.94R
MOSINEE        CLEAR     59  57  94 SW5       29.97S
MARSHFIELD     CLEAR     62  55  77 W5        29.97R
STEVENS POINT  CLEAR     59  56  91 CALM      29.97S
WAUPACA        PTCLDY    63  60  90 CALM      29.96S
WAUTOMA        CLEAR     60  56  86 CALM      29.98
WISC RAPIDS    CLEAR     57  54  89 SW3       29.98R
CAMP DOUGLAS   CLEAR     56  56 100 CALM      29.98R
$$

WIZ011>013-019>022-031-037>040-048>050-300500-
NORTHEAST WISCONSIN

CITY           SKY/WX    TMP DP  RH WIND       PRES   REMARKS
ANTIGO         MOCLDY    58  55  88 CALM      29.96R
SHAWANO        PTCLDY    66  58  76 SW3       29.94S
OCONTO         CLEAR    N/A N/A N/A CALM      29.92R
STURGEON BAY   NOT AVBL
GREEN BAY      CLEAR     67  58  72 SW6       29.94R
MANITOWOC      CLEAR     65  60  84 W6        29.95R
APPLETON       PTCLDY    63  54  72 VRB5      29.94S
CLINTONVILLE   CLEAR     63  54  72 W5        29.94S
OSHKOSH        PTCLDY    65  57  75 SW3       29.96R
$$

WIZ032>034-041-042-053>061-300500-
SOUTHWEST WISCONSIN

CITY           SKY/WX    TMP DP  RH WIND       PRES   REMARKS
LA CROSSE      PTCLDY    65  60  84 SE5       29.98R
SPARTA         CLEAR     58  56  92 CALM      30.00R
VIROQUA        CLEAR     64  58  82 SW3       30.02R
BOSCOBEL       CLEAR     63  60  90 CALM      30.00R
PRAIRIE DU CHI CLEAR     63  58  83 CALM      30.00R
PLATTEVILLE    PTCLDY    67  60  78 SW5       30.02R
$$

WIZ056-057-062-063-064-067-068-300500-
SOUTH CENTRAL WISCONSIN

CITY           SKY/WX    TMP DP  RH WIND       PRES   REMARKS
REEDSBURG      PTCLDY    63  61  94 CALM      29.99R
BARABOO/DELLS  PTCLDY    64  59  84 SW6       29.99R
LONE ROCK      CLEAR     62  60  93 CALM      30.01R
MINERAL POINT  CLEAR     64  59  82 W3        30.02R
MADISON        MOCLDY    65  61  87 CALM      29.99R
MIDDLETON      PTCLDY    65  61  85 W3        30.01R
WATERTOWN      CLOUDY    67  60  75 W5        29.98S
MONROE         CLEAR     68  57  68 SW8       30.01R
JANESVILLE     CLEAR     66  55  68 CALM      29.99S
$$

WIZ051-052-058>065-066-070>072-300500-
SOUTHEAST WISCONSIN

CITY           SKY/WX    TMP DP  RH WIND       PRES   REMARKS
MILWAUKEE      PTCLDY    70  58  65 SW8       29.97S
WAUKESHA       CLEAR     64  55  72 SW5       29.99S
MILWAUKEE/TIMM CLEAR     66  54  63 SW3       29.98S
RACINE         CLEAR     69  57  65 W6        29.99S
BURLINGTON     CLEAR     62  58  87 SW3       29.99S
KENOSHA        CLEAR     65  58  78 W5        29.99R
FOND DU LAC    CLOUDY    66  59  78 SW5       29.97R
SHEBOYGAN      CLEAR     64  57  78 W6        29.95R
WEST BEND      CLEAR     66  55  68 W5        29.97S
JUNEAU         CLOUDY    65  59  79 SW6       29.98S
$$

LSZ147-162-300500-
LAKE SUPERIOR

STATION/POSITION TIME  TEMP    WIND        PRES    WAVE
                       AIR SEA DIR/SP/G            HT/PER
                 (UTC) (F)     (DEG/KT/KT) (MB)    (FT/S)
W MID LAKE BUOY  0350   44 38  240/  8/  8 1012.3R   1/ 4
DEVILS ISLAND    0400   54     220/ 11/ 12 1012.5F
PORT WING        0210   59     200/  5/  6 1012.9R
SAXON HARBOR     0340   56     180/  3/  5 1012.5S
$$

LMZ867-665-643>646-300500-
LAKE MICHIGAN

STATION/POSITION TIME  TEMP    WIND        PRES    WAVE
                       AIR SEA DIR/SP/G            HT/PER
                 (UTC) (F)     (DEG/KT/KT) (MB)    (FT/S)
CHAMBERS ISLAND  0300   65     230/  1/  7 1012.9R
N MID LAKE BUOY  0350   55 47  250/ 10/ 10 1012.1R   2/ 5
NORTHPORT PIER   0300   64     280/  5/  9 1012.5R
KEWAUNEE LAKESHO 0300   68                   N/A
SHEBOYGAN LAKESH 0400   69     250/  6/  7 1014.3R
PORT WASHINGTON  0340   70     260/  4/  6 1014.9R
S MID LAKE BUOY  0350   57 51  230/  6/  8 1014.6R   1
KENOSHA   LAKESH 0400   72     260/  6/  8 1015.2R
$$

TC  - TEMPERATURE IN CELSIUS
VSB - VISIBILITY IN STATUTE MILES
WCI - WIND CHILL INDEX
HX  - HEAT INDEX





USA.gov is the U.S. government's official web portal to all federal, state and local government web resources and services.